This demonstration page uses our WeatherBlox Daily Observations layout. Learn more.

Left ArrowRight Arrow

53.62937, 11.41316

Hourly Observations for April 1, 2018

Temp ( °F °C ) Dew Point ( °F °C ) Humidity (%) Winds ( mph kmh ) Pressure ( in mb ) Visibility ( mi km ) Precip ( " mm )
6:50 am 06:50 Mostly Cloudy with Light Snow 32 undefined 32 undefined 100 100 VRB 3 6 29.62 1003 2 3 N/A
7:20 am 07:20 Mostly Cloudy with Light Snow 32 undefined 32 undefined 100 100 VRB 3 6 29.62 1003 2 3 N/A
7:50 am 07:50 Mostly Cloudy with Light Snow 32 undefined 32 undefined 100 100 VRB 3 6 29.62 1003 1 1 N/A
8:20 am 08:20 Mostly Cloudy with Light Snow 32 undefined 32 undefined 100 100 VRB 3 6 29.62 1003 1 1 N/A
8:50 am 08:50 Cloudy with Light Snow 34 1 34 1 100 100 VRB 5 7 29.65 1004 1 2 N/A
9:20 am 09:20 Mostly Cloudy with Light Snow 34 1 34 1 100 100 NW 3 6 29.65 1004 1 2 N/A
9:50 am 09:50 Mostly Cloudy with Light Snow 34 1 34 1 100 100 NW 3 6 29.65 1004 1 2 N/A
10:20 am 10:20 Mostly Cloudy with Light Snow 34 1 34 1 100 100 VRB 5 7 29.65 1004 1 2 N/A
10:50 am 10:50 Mostly Cloudy with Light Snow 34 1 34 1 100 100 NW 5 7 29.65 1004 1 2 N/A
11:20 am 11:20 Mostly Cloudy with Light Snow 34 1 34 1 100 100 NW 5 7 29.68 1005 1 2 N/A
11:50 am 11:50 Cloudy with Light Snow 34 1 34 1 100 100 NW 5 7 29.68 1005 2 4 N/A
12:20 pm 12:20 Cloudy with Light Snow 34 1 34 1 100 100 NW 5 7 29.68 1005 2 4 N/A
12:50 pm 12:50 Cloudy with Light Rain/Snow 34 1 34 1 100 100 WNW 5 7 29.68 1005 2 4 N/A
1:20 pm 13:20 Cloudy 36 2 34 1 93 93 NW 6 9 29.68 1005 3 5 N/A
1:50 pm 13:50 Mostly Cloudy with Light Rain 36 2 34 1 93 93 VRB 5 7 29.71 1006 3 5 N/A
2:20 pm 14:20 Mostly Cloudy with Light Rain 36 2 34 1 93 93 WNW 7 11 29.71 1006 3 5 N/A
2:50 pm 14:50 Mostly Cloudy with Light Rain 36 2 34 1 93 93 NW 6 9 29.71 1006 3 5 N/A
3:20 pm 15:20 Mostly Cloudy with Light Rain 34 1 34 1 100 100 NW 3 6 29.71 1006 4 6 N/A
3:50 pm 15:50 Mostly Cloudy with Light Rain 36 2 34 1 93 93 NW 5 7 29.71 1006 4 6 N/A
4:20 pm 16:20 Mostly Cloudy 36 2 34 1 93 93 VRB 3 6 29.71 1006 30 48 N/A
4:50 pm 16:50 Mostly Cloudy 37 3 34 1 87 87 NW 3 6 29.74 1007 30 48 N/A
5:20 pm 17:20 Mostly Cloudy 37 3 34 1 87 87 VRB 2 4 29.71 1006 30 48 N/A
5:50 pm 17:50 Mostly Cloudy 39 4 34 1 81 81 WSW 3 6 29.74 1007 30 48 N/A
6:20 pm 18:20 Mostly Cloudy 39 4 36 2 87 87 N N/A 29.74 1007 30 48 N/A
6:50 pm 18:50 Mostly Cloudy 39 4 34 1 81 81 E 3 6 29.74 1007 30 48 N/A
7:20 pm 19:20 Mostly Cloudy 37 3 36 2 93 93 NE 3 6 29.74 1007 30 48 N/A
7:50 pm 19:50 Mostly Cloudy 36 2 36 2 100 100 VRB 2 4 29.77 1008 30 48 N/A
8:20 pm 20:20 Mostly Cloudy 36 2 36 2 100 100 VRB 1 2 29.77 1008 30 48 N/A
8:50 pm 20:50 Partly Cloudy 36 2 36 2 100 100 VRB 1 2 29.77 1008 6 9 N/A

Powered by AerisWeather